Regional Weather Roundup
Issued by NWS

Home | Current Version | Previous Version | Graphics & Text | Print | Product List | Glossary On
Versions: 1 2 3 4 5 6 7 8 9 10 11 12 13 14 15 16 17 18 19 20 21 22 23 24 25 26 27 28 29 30 31 32 33 34 35 36 37 38 39 40 41 42 43 44 45 46 47 48 49 50
000
ASUS43 KMKX 010221
RWRWI

WISCONSIN REGIONAL WEATHER ROUNDUP
NATIONAL WEATHER SERVICE MILWAUKEE/SULLIVAN WI
900 PM CDT THU JUL 31 2014

NOTE: "FAIR" INDICATES FEW OR NO CLOUDS BELOW 12,000 FEET WITH NO
SIGNIFICANT WEATHER AND/OR OBSTRUCTIONS TO VISIBILITY.

WIZ001-002-006>008-014>016-023>028-010300-
NORTHWEST WISCONSIN

CITY           SKY/WX    TMP DP  RH WIND       PRES   REMARKS
SUPERIOR ARPT  CLEAR     63  60  90 CALM      29.96S
ASHLAND        CLEAR     64  61  90 W3        29.98R
HAYWARD        MOCLDY    68  64  87 CALM      29.99S
SIREN          PTCLDY    68  67  96 CALM      29.98S
RICE LAKE      MOCLDY    67  61  80 CALM      30.00F
LADYSMITH      MOCLDY    67  64  89 CALM      30.01S
EAU CLAIRE     MOCLDY    72  61  68 CALM      29.98F
MENOMONIE      PTCLDY    69  62  79 CALM      30.00S
NEW RICHMOND   CLEAR     67  59  75 W3        30.00S
OSCEOLA        CLEAR     71  61  71 CALM      30.01S
$$

WIZ003>005-009-010-017-018-010300-
NORTH CENTRAL WISCONSIN

CITY           SKY/WX    TMP DP  RH WIND       PRES   REMARKS
WOODRUFF       CLEAR     62  45  53 CALM      30.01R
RHINELANDER    CLEAR     58  55  90 CALM      30.01S
EAGLE RIVER    CLEAR     59  53  79 SW3       30.00S
LAND O LAKES   CLEAR     57  55  94 CALM      30.01S
PHILLIPS       PTCLDY    64  61  91 CALM      30.00R
TOMAHAWK       CLEAR     60  57  91 CALM      30.01S
MEDFORD        PTCLDY    63  60  88 CALM      30.01S
MERRILL        CLEAR     65  62  90 CALM      30.00S
$$

WIZ029-030-035-036-043>047-010300-
CENTRAL WISCONSIN

CITY           SKY/WX    TMP DP  RH WIND       PRES   REMARKS
WAUSAU         PTCLDY    69  61  75 W6        29.98S
MOSINEE        PTCLDY    66  63  88 VRB5      30.01S
MARSHFIELD     MOCLDY    69  61  75 W5        30.00S
STEVENS POINT  MOCLDY    63  61  93 CALM      30.01S
WAUPACA        MOCLDY    70  56  62 CALM      30.00R
WAUTOMA        PTCLDY    73  59  61 CALM      30.00S
WISC RAPIDS    PTCLDY    69  60  73 W5        30.02R
CAMP DOUGLAS   PTCLDY    64  64 100 CALM      30.01S
$$

WIZ011>013-019>022-031-037>040-048>050-010300-
NORTHEAST WISCONSIN

CITY           SKY/WX    TMP DP  RH WIND       PRES   REMARKS
ANTIGO         CLEAR     62  58  85 CALM      30.02R
STURGEON BAY   PTCLDY    64  57  77 S7        29.98R
GREEN BAY      PTCLDY    67  63  87 W5        29.97S
MANITOWOC      CLOUDY    62  61  96 CALM      29.98S FOG
APPLETON       MOCLDY    66  59  77 W6        29.99S
CLINTONVILLE   PTCLDY    64  57  77 W5        29.99R
OSHKOSH        LGT RAIN  66  64  93 W5        29.99S
$$

WIZ032>034-041-042-053>061-010300-
SOUTHWEST WISCONSIN

CITY           SKY/WX    TMP DP  RH WIND       PRES   REMARKS
LA CROSSE      CLEAR     75  61  61 SW3       30.00R
SPARTA         CLEAR     64  59  83 CALM      30.02S
VIROQUA        FAIR      67  60  79 W3        30.03S
BOSCOBEL       CLEAR     68  62  81 CALM      30.02R
PRAIRIE DU CHI CLEAR     67  59  75 NE3       30.01S
PLATTEVILLE    FAIR      70  58  65 SW3       30.04S
$$

WIZ056-057-062-063-064-067-068-010300-
SOUTH CENTRAL WISCONSIN

CITY           SKY/WX    TMP DP  RH WIND       PRES   REMARKS
BARABOO/DELLS  PTCLDY    67  57  70 CALM      30.02S
LONE ROCK      PTCLDY    68  60  75 CALM      30.02R
WATERTOWN      CLEAR     68  60  75 CALM      30.01S
MADISON        MOCLDY    70  59  68 CALM      30.02R
MIDDLETON      FAIR      67  61  79 CALM      30.03R
MONROE         CLEAR     72  57  60 SW6       30.04R
JANESVILLE     CLEAR     68  57  68 SW5       30.03
$$

WIZ051-052-058>065-066-070>072-010300-
SOUTHEAST WISCONSIN

CITY           SKY/WX    TMP DP  RH WIND       PRES   REMARKS
MILWAUKEE      PTCLDY    76  58  53 W5        30.01R
WAUKESHA       NOT AVBL
MILWAUKEE/TIMM CLEAR     72  55  56 SW5       30.01R
RACINE         CLEAR     71  59  65 SW3       30.03R
BURLINGTON     CLEAR     63  58  82 SW5       30.02R
KENOSHA        CLEAR     64  58  80 W7        30.02R
FOND DU LAC    PTCLDY    65  62  90 SW5       30.00F
SHEBOYGAN      MOCLDY    68  64  87 SW3       30.00R
WEST BEND      PTCLDY    72  55  56 SW5       30.01R
JUNEAU         PTCLDY    68  58  71 SW6       30.02S
$$

LSZ147-162-010300-
LAKE SUPERIOR

STATION/POSITION TIME  TEMP    WIND        PRES    WAVE
                       AIR SEA DIR/SP/G            HT/PER
                 (UTC) (F)     (DEG/KT/KT) (MB)    (FT/S)
W MID LAKE BUOY  0150   57 45  230/  6/  8 1014.2R   0
PORT WING        0100   73     260/  3/  5 1014.6
SAXON HARBOR     0100          200/  3/  5 1014.2S
$$

LMZ867-665-643>646-010300-
LAKE MICHIGAN

STATION/POSITION TIME  TEMP    WIND        PRES    WAVE
                       AIR SEA DIR/SP/G            HT/PER
                 (UTC) (F)     (DEG/KT/KT) (MB)    (FT/S)
N MID LAKE BUOY  0150   58 56  230/  8/  8 1014.1R   2/ 4
NORTHPORT PIER   0100   69     240/  2/  4 1013.9S
SISTER BAY       0055   72        CALM       N/A
ALGOMA LAKESHORE 0151          220/ 13/ 14   N/A
KEWAUNEE LAKESHO 0200   56     160/  2/  4 1014.4R
SHEBOYGAN LAKESH 0200   70     210/  5/  5 1015.5R
PORT WASHINGTON  0100   69     180/  3/  4 1015.9R
ATWATER BUOY     0200   72     230/  6     1016.8R
MILWAUKEE LAKESH 0200   77     260/  6/  7   N/A
S MID LAKE BUOY  0150   67 63  200/ 10/ 10 1016.2R   0
KENOSHA   LAKESH 0200   76     240/  7/  9 1015.9R
$$

TC  - TEMPERATURE IN CELSIUS
VSB - VISIBILITY IN STATUTE MILES
WCI - WIND CHILL INDEX
HX  - HEAT INDEX




USA.gov is the U.S. government's official web portal to all federal, state and local government web resources and services.